Time,TemperatureF,DewpointF,PressureIn,WindDirection,WindDirectionDegrees,WindSpeedMPH,WindSpeedGustMPH,Humidity,HourlyPrecipIn,Conditions,Clouds,dailyrainin,SoftwareType,DateUTC
2013-04-18 01:00:00,61.4,61.4,30.07,WNW,292,0.0,0.0,100,0.00,,,0.00,Meteorologica,2013-04-18 05:00:00,
2013-04-18 01:01:00,73.0,57.0,29.83,ESE,112,2.8,16.1,57,0.00,,,0.00,Meteorologica,2013-04-18 05:01:00,
2013-04-18 01:02:00,73.1,57.2,29.83,SSW,204,5.6,16.1,57,0.00,,,0.00,Meteorologica,2013-04-18 05:02:00,
2013-04-18 01:03:00,73.0,57.2,29.83,SW,236,5.9,16.1,57,0.00,,,0.00,Meteorologica,2013-04-18 05:03:00,
2013-04-18 01:04:00,73.0,57.2,29.83,ESE,115,5.6,16.1,57,0.00,,,0.00,Meteorologica,2013-04-18 05:04:00,
2013-04-18 01:05:00,61.4,61.4,30.07,WNW,292,0.0,0.0,100,0.00,,,0.00,Meteorologica,2013-04-18 05:05:00,
2013-04-18 01:06:00,72.9,57.2,29.83,SSE,147,7.5,16.8,57,0.00,,,0.00,Meteorologica,2013-04-18 05:06:00,
2013-04-18 01:07:00,72.9,57.1,29.83,SE,134,2.7,16.8,57,0.00,,,0.00,Meteorologica,2013-04-18 05:07:00,
2013-04-18 01:08:00,72.9,57.2,29.83,SSW,201,5.4,16.8,57,0.00,,,0.00,Meteorologica,2013-04-18 05:08:00,
2013-04-18 01:09:00,72.9,57.3,29.83,SSW,194,6.8,16.8,57,0.00,,,0.00,Meteorologica,2013-04-18 05:09:00,
2013-04-18 01:10:00,61.2,61.2,30.07,WNW,292,0.0,0.0,100,0.00,,,0.00,Meteorologica,2013-04-18 05:10:00,
2013-04-18 01:11:00,72.8,57.1,29.82,South,191,2.9,16.4,57,0.00,,,0.00,Meteorologica,2013-04-18 05:11:00,
2013-04-18 01:12:00,72.8,57.2,29.82,SSW,212,6.5,16.4,57,0.00,,,0.00,Meteorologica,2013-04-18 05:12:00,
2013-04-18 01:13:00,72.8,57.3,29.82,SE,141,5.6,16.4,57,0.00,,,0.00,Meteorologica,2013-04-18 05:13:00,
2013-04-18 01:14:00,72.8,57.3,29.81,SSE,165,4.6,16.4,58,0.00,,,0.00,Meteorologica,2013-04-18 05:14:00,
2013-04-18 01:15:00,61.3,61.3,30.07,WNW,292,0.0,0.0,100,0.00,,,0.00,Meteorologica,2013-04-18 05:15:00,
2013-04-18 01:16:00,72.8,57.3,29.81,SSW,201,4.6,13.4,57,0.00,,,0.00,Meteorologica,2013-04-18 05:16:00,
2013-04-18 01:17:00,72.7,57.3,29.81,ENE,63,3.4,13.4,58,0.00,,,0.00,Meteorologica,2013-04-18 05:17:00,
2013-04-18 01:18:00,72.7,57.3,29.82,SSW,211,5.6,13.4,58,0.00,,,0.00,Meteorologica,2013-04-18 05:18:00,
2013-04-18 01:19:00,72.7,57.3,29.82,South,172,9.3,13.4,58,0.00,,,0.00,Meteorologica,2013-04-18 05:19:00,
2013-04-18 01:20:00,61.5,61.5,30.06,SSW,192,1.6,2.2,100,0.00,,,0.00,Meteorologica,2013-04-18 05:20:00,
2013-04-18 01:21:00,72.7,57.3,29.82,SE,142,6.7,16.0,58,0.00,,,0.00,Meteorologica,2013-04-18 05:21:00,
2013-04-18 01:22:00,72.8,57.5,29.82,SSW,196,9.2,16.0,58,0.00,,,0.00,Meteorologica,2013-04-18 05:22:00,
2013-04-18 01:23:00,72.7,57.3,29.82,WSW,238,9.6,16.0,58,0.00,,,0.00,Meteorologica,2013-04-18 05:23:00,
2013-04-18 01:24:00,72.7,57.3,29.82,SSW,193,6.1,16.0,58,0.00,,,0.00,Meteorologica,2013-04-18 05:24:00,
2013-04-18 01:25:00,61.5,61.5,30.06,SSW,204,1.7,3.5,100,0.00,,,0.00,Meteorologica,2013-04-18 05:25:00,
2013-04-18 01:26:00,72.7,57.3,29.82,SE,145,3.2,18.6,58,0.00,,,0.00,Meteorologica,2013-04-18 05:26:00,
2013-04-18 01:27:00,72.6,57.2,29.82,South,172,4.4,18.6,58,0.00,,,0.00,Meteorologica,2013-04-18 05:27:00,
2013-04-18 01:28:00,72.7,57.4,29.82,South,172,6.2,18.6,58,0.00,,,0.00,Meteorologica,2013-04-18 05:28:00,
2013-04-18 01:29:00,72.7,57.3,29.81,SE,143,3.8,18.6,58,0.00,,,0.00,Meteorologica,2013-04-18 05:29:00,
2013-04-18 01:30:00,61.4,61.4,30.06,South,179,1.0,6.2,100,0.00,,,0.00,Meteorologica,2013-04-18 05:30:00,
2013-04-18 01:31:00,72.6,57.2,29.81,ESE,114,3.8,13.8,58,0.00,,,0.00,Meteorologica,2013-04-18 05:31:00,
2013-04-18 01:32:00,72.6,57.3,29.81,SW,214,6.3,13.8,58,0.00,,,0.00,Meteorologica,2013-04-18 05:32:00,
2013-04-18 01:33:00,72.7,57.4,29.81,SSW,193,4.9,13.8,58,0.00,,,0.00,Meteorologica,2013-04-18 05:33:00,
2013-04-18 01:34:00,72.7,57.5,29.81,WSW,247,5.6,13.8,58,0.00,,,0.00,Meteorologica,2013-04-18 05:34:00,
2013-04-18 01:35:00,61.5,61.5,30.06,NW,313,0.2,3.7,100,0.00,,,0.00,Meteorologica,2013-04-18 05:35:00,
2013-04-18 01:36:00,72.7,57.5,29.81,SW,236,7.0,11.1,58,0.00,,,0.00,Meteorologica,2013-04-18 05:36:00,
2013-04-18 01:37:00,72.6,57.4,29.81,South,174,6.7,11.1,58,0.00,,,0.00,Meteorologica,2013-04-18 05:37:00,
2013-04-18 01:38:00,72.5,57.4,29.80,WSW,248,5.0,11.1,58,0.00,,,0.00,Meteorologica,2013-04-18 05:38:00,
2013-04-18 01:39:00,72.7,57.6,29.80,SSW,198,4.6,11.1,58,0.00,,,0.00,Meteorologica,2013-04-18 05:39:00,
2013-04-18 01:40:00,61.5,61.5,30.06,NW,313,0.0,0.0,100,0.00,,,0.00,Meteorologica,2013-04-18 05:40:00,
2013-04-18 01:41:00,72.5,57.6,29.80,SSW,200,4.7,13.5,59,0.00,,,0.00,Meteorologica,2013-04-18 05:41:00,
2013-04-18 01:42:00,72.6,57.7,29.80,South,183,8.4,13.5,59,0.00,,,0.00,Meteorologica,2013-04-18 05:42:00,
2013-04-18 01:43:00,72.5,57.6,29.80,SSW,200,4.1,13.5,59,0.00,,,0.00,Meteorologica,2013-04-18 05:43:00,
2013-04-18 01:44:00,72.6,57.7,29.80,South,176,5.9,13.5,59,0.00,,,0.00,Meteorologica,2013-04-18 05:44:00,
2013-04-18 01:45:00,72.5,57.6,29.81,SSW,198,4.4,23.9,59,0.00,,,0.00,Meteorologica,2013-04-18 05:45:00,
2013-04-18 01:46:00,61.6,61.6,30.06,NW,313,0.0,0.0,100,0.00,,,0.00,Meteorologica,2013-04-18 05:46:00,
2013-04-18 01:47:00,72.5,57.6,29.80,SW,220,3.6,23.9,59,0.00,,,0.00,Meteorologica,2013-04-18 05:47:00,
2013-04-18 01:48:00,72.5,57.7,29.80,SSE,152,6.3,23.9,59,0.00,,,0.00,Meteorologica,2013-04-18 05:48:00,
2013-04-18 01:49:00,72.5,57.7,29.80,SSE,167,5.2,23.9,59,0.00,,,0.00,Meteorologica,2013-04-18 05:49:00,
2013-04-18 01:50:00,72.5,57.7,29.80,SSE,153,5.3,13.1,59,0.00,,,0.00,Meteorologica,2013-04-18 05:50:00,
2013-04-18 01:51:00,61.6,61.6,30.06,NW,313,0.0,0.0,100,0.00,,,0.00,Meteorologica,2013-04-18 05:51:00,
2013-04-18 01:52:00,72.4,57.8,29.80,SSW,194,4.7,13.1,59,0.00,,,0.00,Meteorologica,2013-04-18 05:52:00,
2013-04-18 01:53:00,72.5,57.9,29.80,SSE,147,6.9,13.1,59,0.00,,,0.00,Meteorologica,2013-04-18 05:53:00,
2013-04-18 01:54:00,72.3,57.7,29.80,SSW,209,8.8,13.1,59,0.00,,,0.00,Meteorologica,2013-04-18 05:54:00,
2013-04-18 01:55:00,72.4,57.8,29.80,South,183,5.5,15.7,59,0.00,,,0.00,Meteorologica,2013-04-18 05:55:00,
2013-04-18 01:56:00,72.4,57.8,29.80,WSW,242,3.0,15.7,60,0.00,,,0.00,Meteorologica,2013-04-18 05:56:00,
2013-04-18 01:57:00,61.5,61.5,30.06,NW,313,0.0,0.0,100,0.00,,,0.00,Meteorologica,2013-04-18 05:57:00,
2013-04-18 01:58:00,72.5,58.1,29.80,SE,133,5.3,15.7,60,0.00,,,0.00,Meteorologica,2013-04-18 05:58:00,
2013-04-18 01:59:00,72.3,57.9,29.80,SE,146,3.5,15.7,60,0.00,,,0.00,Meteorologica,2013-04-18 05:59:00,
2013-04-18 02:02:00,61.5,61.5,30.05,NW,313,0.0,0.0,100,0.00,,,0.00,Meteorologica,2013-04-18 06:02:00,
2013-04-18 02:07:00,61.4,61.4,30.05,NW,313,0.0,0.0,100,0.00,,,0.00,Meteorologica,2013-04-18 06:07:00,
2013-04-18 02:12:00,61.4,61.4,30.05,NW,313,0.0,0.0,100,0.00,,,0.00,Meteorologica,2013-04-18 06:12:00,
2013-04-18 02:17:00,61.2,61.2,30.05,NW,313,0.0,0.0,100,0.00,,,0.00,Meteorologica,2013-04-18 06:17:00,
2013-04-18 02:22:00,61.2,61.2,30.05,NW,313,0.0,0.0,100,0.00,,,0.00,Meteorologica,2013-04-18 06:22:00,
2013-04-18 02:27:00,61.3,61.3,30.05,NW,313,0.0,0.0,100,0.00,,,0.00,Meteorologica,2013-04-18 06:27:00,
2013-04-18 02:32:00,61.1,61.1,30.05,NW,313,0.0,0.0,100,0.00,,,0.00,Meteorologica,2013-04-18 06:32:00,
2013-04-18 02:38:00,60.9,60.9,30.05,NW,313,0.0,0.0,100,0.00,,,0.00,Meteorologica,2013-04-18 06:38:00,
2013-04-18 02:44:00,60.9,60.9,30.05,NW,313,0.0,0.0,100,0.00,,,0.00,Meteorologica,2013-04-18 06:44:00,
2013-04-18 02:49:00,60.9,60.9,30.05,NW,313,0.0,0.0,100,0.00,,,0.00,Meteorologica,2013-04-18 06:49:00,
2013-04-18 02:54:00,61.2,61.2,30.05,NW,313,0.0,0.0,100,0.00,,,0.00,Meteorologica,2013-04-18 06:54:00,
2013-04-18 02:59:00,61.1,61.1,30.05,NW,313,0.0,0.0,100,0.00,,,0.00,Meteorologica,2013-04-18 06:59:00,
2013-04-18 03:04:00,61.3,61.3,30.05,NW,313,0.0,0.0,100,0.00,,,0.00,Meteorologica,2013-04-18 07:04:00,
2013-04-18 03:09:00,61.2,61.2,30.05,NW,313,0.0,0.0,100,0.00,,,0.00,Meteorologica,2013-04-18 07:09:00,
2013-04-18 03:15:00,61.1,61.1,30.05,NW,313,0.0,0.0,100,0.00,,,0.00,Meteorologica,2013-04-18 07:15:00,
2013-04-18 03:20:00,61.2,61.2,30.05,NW,313,0.0,0.0,100,0.00,,,0.00,Meteorologica,2013-04-18 07:20:00,
2013-04-18 03:25:00,61.1,61.1,30.05,NW,313,0.0,0.0,100,0.00,,,0.00,Meteorologica,2013-04-18 07:25:00,
2013-04-18 03:30:00,60.9,60.9,30.05,NW,313,0.0,0.0,100,0.00,,,0.00,Meteorologica,2013-04-18 07:30:00,
2013-04-18 03:36:00,60.9,60.9,30.05,NW,313,0.0,0.0,100,0.00,,,0.00,Meteorologica,2013-04-18 07:36:00,
2013-04-18 03:41:00,60.9,60.9,30.05,NW,313,0.0,0.0,100,0.00,,,0.00,Meteorologica,2013-04-18 07:41:00,
2013-04-18 03:46:00,60.8,60.8,30.05,NW,313,0.0,0.0,100,0.00,,,0.00,Meteorologica,2013-04-18 07:46:00,
2013-04-18 03:51:00,61.0,61.0,30.05,NW,313,0.0,0.0,100,0.00,,,0.00,Meteorologica,2013-04-18 07:51:00,
2013-04-18 03:56:00,60.8,60.8,30.05,NW,313,0.0,0.0,100,0.00,,,0.00,Meteorologica,2013-04-18 07:56:00,
2013-04-18 04:01:00,60.7,60.7,30.05,NW,313,0.0,0.0,100,0.00,,,0.00,Meteorologica,2013-04-18 08:01:00,
2013-04-18 04:06:00,60.7,60.7,30.05,NW,313,0.0,0.0,100,0.00,,,0.00,Meteorologica,2013-04-18 08:06:00,
2013-04-18 04:11:00,60.7,60.7,30.05,NW,313,0.0,0.0,100,0.00,,,0.00,Meteorologica,2013-04-18 08:11:00,
2013-04-18 04:16:00,60.6,60.6,30.05,NW,313,0.0,0.0,100,0.00,,,0.00,Meteorologica,2013-04-18 08:16:00,
2013-04-18 04:22:00,60.5,60.5,30.05,NW,313,0.0,0.0,100,0.00,,,0.00,Meteorologica,2013-04-18 08:22:00,
2013-04-18 04:27:00,60.5,60.5,30.05,NW,313,0.0,0.0,100,0.00,,,0.00,Meteorologica,2013-04-18 08:27:00,
2013-04-18 04:32:00,60.5,60.5,30.05,NW,313,0.0,0.0,100,0.00,,,0.00,Meteorologica,2013-04-18 08:32:00,
2013-04-18 04:37:00,60.5,60.5,30.05,NW,313,0.0,0.0,100,0.00,,,0.00,Meteorologica,2013-04-18 08:37:00,
2013-04-18 04:42:00,60.6,60.6,30.05,NW,313,0.0,0.0,100,0.00,,,0.00,Meteorologica,2013-04-18 08:42:00,
2013-04-18 04:47:00,60.3,60.3,30.05,NW,313,0.0,0.0,100,0.00,,,0.00,Meteorologica,2013-04-18 08:47:00,
2013-04-18 04:53:00,60.3,60.3,30.05,NW,313,0.0,0.0,100,0.00,,,0.00,Meteorologica,2013-04-18 08:53:00,
2013-04-18 04:58:00,60.2,60.2,30.05,NW,313,0.0,0.0,100,0.00,,,0.00,Meteorologica,2013-04-18 08:58:00,
2013-04-18 05:03:00,59.9,59.9,30.05,NW,313,0.0,0.0,100,0.00,,,0.00,Meteorologica,2013-04-18 09:03:00,
2013-04-18 05:08:00,60.1,60.1,30.05,NW,313,0.0,0.0,100,0.00,,,0.00,Meteorologica,2013-04-18 09:08:00,
2013-04-18 05:13:00,59.7,59.7,30.05,NW,313,0.0,0.0,100,0.00,,,0.00,Meteorologica,2013-04-18 09:13:00,
2013-04-18 05:18:00,59.9,59.9,30.05,NW,313,0.0,0.0,100,0.00,,,0.00,Meteorologica,2013-04-18 09:18:00,
2013-04-18 05:24:00,59.8,59.8,30.05,NW,313,0.0,0.0,100,0.00,,,0.00,Meteorologica,2013-04-18 09:24:00,
2013-04-18 05:29:00,59.9,59.9,30.05,NW,313,0.0,0.0,100,0.00,,,0.00,Meteorologica,2013-04-18 09:29:00,
2013-04-18 05:34:00,60.0,60.0,30.05,NW,313,0.0,0.0,100,0.00,,,0.00,Meteorologica,2013-04-18 09:34:00,
2013-04-18 05:39:00,60.3,60.3,30.05,WSW,237,1.8,0.0,100,0.00,,,0.00,Meteorologica,2013-04-18 09:39:00,
2013-04-18 05:44:00,60.5,60.5,30.05,SSW,202,1.7,3.2,100,0.00,,,0.00,Meteorologica,2013-04-18 09:44:00,
2013-04-18 05:49:00,60.6,60.6,30.05,SW,223,0.8,4.2,100,0.00,,,0.00,Meteorologica,2013-04-18 09:49:00,
2013-04-18 05:54:00,60.9,60.9,30.05,SSW,206,3.5,5.6,100,0.00,,,0.00,Meteorologica,2013-04-18 09:54:00,
2013-04-18 05:59:00,61.0,61.0,30.05,SSW,200,6.3,7.9,100,0.00,,,0.00,Meteorologica,2013-04-18 09:59:00,
2013-04-18 06:04:00,61.3,61.3,30.05,SSW,197,3.2,9.6,100,0.00,,,0.00,Meteorologica,2013-04-18 10:04:00,
2013-04-18 06:09:00,61.5,61.5,30.05,SSW,194,0.6,4.9,100,0.00,,,0.00,Meteorologica,2013-04-18 10:09:00,
2013-04-18 06:14:00,61.7,61.7,30.05,East,80,1.7,8.7,100,0.00,,,0.00,Meteorologica,2013-04-18 10:14:00,
2013-04-18 06:19:00,61.8,61.8,30.05,SSW,213,1.4,7.5,100,0.00,,,0.00,Meteorologica,2013-04-18 10:19:00,
2013-04-18 06:24:00,61.8,61.8,30.05,South,180,2.7,6.3,100,0.00,,,0.00,Meteorologica,2013-04-18 10:24:00,
2013-04-18 06:29:00,61.9,61.9,30.05,SW,233,0.7,7.5,100,0.00,,,0.00,Meteorologica,2013-04-18 10:29:00,
2013-04-18 06:34:00,61.9,61.9,30.05,SSW,206,2.6,12.5,100,0.00,,,0.00,Meteorologica,2013-04-18 10:34:00,
2013-04-18 06:39:00,62.1,62.1,30.05,ENE,66,2.4,8.4,100,0.00,,,0.00,Meteorologica,2013-04-18 10:39:00,
2013-04-18 06:44:00,62.1,62.1,30.05,SSW,194,1.5,7.5,100,0.00,,,0.00,Meteorologica,2013-04-18 10:44:00,
2013-04-18 06:49:00,62.1,62.1,30.05,SE,146,0.6,7.5,100,0.00,,,0.00,Meteorologica,2013-04-18 10:49:00,
2013-04-18 06:54:00,62.0,62.0,30.05,ENE,67,0.0,4.6,100,0.00,,,0.00,Meteorologica,2013-04-18 10:54:00,
2013-04-18 07:00:00,62.0,62.0,30.05,South,180,1.9,4.7,100,0.00,,,0.00,Meteorologica,2013-04-18 11:00:00,
2013-04-18 07:05:00,62.1,62.1,30.05,ESE,105,1.5,6.5,100,0.00,,,0.00,Meteorologica,2013-04-18 11:05:00,
2013-04-18 07:10:00,62.0,62.0,30.05,South,170,1.9,5.1,100,0.00,,,0.00,Meteorologica,2013-04-18 11:10:00,
2013-04-18 07:15:00,61.9,61.9,30.05,SW,227,0.0,5.0,100,0.00,,,0.00,Meteorologica,2013-04-18 11:15:00,
2013-04-18 07:20:00,62.0,62.0,30.06,SW,225,3.4,6.4,100,0.00,,,0.00,Meteorologica,2013-04-18 11:20:00,
2013-04-18 07:25:00,62.0,62.0,30.06,SW,214,0.5,7.0,100,0.00,,,0.00,Meteorologica,2013-04-18 11:25:00,
2013-04-18 07:30:00,62.0,62.0,30.06,SSE,165,2.2,8.7,100,0.00,,,0.00,Meteorologica,2013-04-18 11:30:00,
2013-04-18 07:35:00,62.1,62.1,30.06,South,176,1.9,5.2,100,0.00,,,0.00,Meteorologica,2013-04-18 11:35:00,
2013-04-18 07:40:00,62.2,62.2,30.06,NE,38,0.0,7.4,100,0.00,,,0.00,Meteorologica,2013-04-18 11:40:00,
2013-04-18 07:45:00,62.2,62.2,30.06,SW,227,2.6,5.0,100,0.00,,,0.00,Meteorologica,2013-04-18 11:45:00,
2013-04-18 07:50:00,62.1,62.1,30.06,NE,49,0.0,5.0,100,0.00,,,0.00,Meteorologica,2013-04-18 11:50:00,
2013-04-18 07:55:00,62.2,62.2,30.06,SSE,165,3.8,10.5,100,0.00,,,0.00,Meteorologica,2013-04-18 11:55:00,
2013-04-18 08:00:00,62.3,62.3,30.06,SSW,201,3.0,8.8,100,0.00,,,0.00,Meteorologica,2013-04-18 12:00:00,
2013-04-18 08:05:00,62.5,62.5,30.07,NE,56,0.0,7.1,100,0.00,,,0.00,Meteorologica,2013-04-18 12:05:00,
2013-04-18 08:10:00,62.4,62.4,30.07,SE,138,0.0,8.0,100,0.00,,,0.00,Meteorologica,2013-04-18 12:10:00,
2013-04-18 08:15:00,62.6,62.6,30.07,SSW,208,2.2,6.6,100,0.00,,,0.00,Meteorologica,2013-04-18 12:15:00,
2013-04-18 08:20:00,62.8,62.8,30.07,SW,225,1.3,6.1,100,0.00,,,0.00,Meteorologica,2013-04-18 12:20:00,
2013-04-18 08:25:00,63.0,63.0,30.07,SW,220,3.6,13.0,100,0.00,,,0.00,Meteorologica,2013-04-18 12:25:00,
2013-04-18 08:31:00,63.1,63.1,30.07,SSE,162,1.1,7.4,100,0.00,,,0.00,Meteorologica,2013-04-18 12:31:00,
2013-04-18 08:36:00,63.2,63.2,30.07,SE,127,4.5,9.8,100,0.00,,,0.00,Meteorologica,2013-04-18 12:36:00,
2013-04-18 08:41:00,63.4,63.4,30.07,SSW,203,4.6,7.4,100,0.00,,,0.00,Meteorologica,2013-04-18 12:41:00,
2013-04-18 08:46:00,63.6,63.6,30.07,SSW,210,3.4,8.5,100,0.00,,,0.00,Meteorologica,2013-04-18 12:46:00,
2013-04-18 08:51:00,63.8,63.8,30.07,SE,141,0.6,9.8,100,0.00,,,0.00,Meteorologica,2013-04-18 12:51:00,
2013-04-18 08:56:00,64.0,64.0,30.08,NW,325,0.1,5.1,100,0.00,,,0.00,Meteorologica,2013-04-18 12:56:00,
2013-04-18 09:01:00,64.2,64.2,30.07,SE,146,0.3,3.2,100,0.00,,,0.00,Meteorologica,2013-04-18 13:01:00,
2013-04-18 09:06:00,64.5,64.5,30.07,East,101,2.5,6.9,100,0.00,,,0.00,Meteorologica,2013-04-18 13:06:00,
2013-04-18 09:11:00,65.0,65.0,30.08,South,172,0.5,5.8,100,0.00,,,0.00,Meteorologica,2013-04-18 13:11:00,
2013-04-18 09:17:00,65.1,65.1,30.08,SSW,208,0.7,6.1,100,0.00,,,0.00,Meteorologica,2013-04-18 13:17:00,
2013-04-18 09:21:00,65.3,65.3,30.08,SSE,152,2.0,7.0,100,0.00,,,0.00,Meteorologica,2013-04-18 13:21:00,
2013-04-18 09:27:00,65.6,65.6,30.08,SSW,207,0.3,9.4,100,0.00,,,0.00,Meteorologica,2013-04-18 13:27:00,
2013-04-18 09:32:00,65.7,65.7,30.08,SSW,207,5.7,5.7,100,0.00,,,0.00,Meteorologica,2013-04-18 13:32:00,
2013-04-18 09:37:00,65.7,65.7,30.08,SW,217,4.6,8.1,100,0.00,,,0.00,Meteorologica,2013-04-18 13:37:00,
2013-04-18 09:42:00,65.9,65.9,30.08,SW,214,4.1,8.4,100,0.00,,,0.00,Meteorologica,2013-04-18 13:42:00,
2013-04-18 09:47:00,66.0,66.0,30.08,SW,216,3.8,10.4,100,0.00,,,0.00,Meteorologica,2013-04-18 13:47:00,
2013-04-18 09:52:00,66.3,66.3,30.08,ENE,74,1.5,10.4,100,0.00,,,0.00,Meteorologica,2013-04-18 13:52:00,
2013-04-18 09:57:00,66.4,66.4,30.09,SW,232,1.6,7.8,100,0.00,,,0.00,Meteorologica,2013-04-18 13:57:00,
2013-04-18 10:02:00,66.9,66.9,30.09,South,178,3.4,10.1,100,0.00,,,0.00,Meteorologica,2013-04-18 14:02:00,
2013-04-18 10:07:00,67.1,67.1,30.08,SSW,196,2.5,10.8,100,0.00,,,0.00,Meteorologica,2013-04-18 14:07:00,
2013-04-18 10:12:00,67.2,67.2,30.08,South,188,3.3,10.2,100,0.00,,,0.00,Meteorologica,2013-04-18 14:12:00,
2013-04-18 10:17:00,67.3,67.3,30.08,SSE,151,1.3,8.4,100,0.00,,,0.00,Meteorologica,2013-04-18 14:17:00,
2013-04-18 10:22:00,67.7,67.7,30.08,SSE,149,0.5,3.4,100,0.00,,,0.00,Meteorologica,2013-04-18 14:22:00,
2013-04-18 10:27:00,67.9,67.9,30.08,SSE,147,2.6,3.0,100,0.00,,,0.00,Meteorologica,2013-04-18 14:27:00,
2013-04-18 10:32:00,68.2,68.2,30.08,South,176,3.4,9.7,100,0.00,,,0.00,Meteorologica,2013-04-18 14:32:00,
2013-04-18 10:37:00,68.6,68.6,30.08,South,187,4.6,6.7,100,0.00,,,0.00,Meteorologica,2013-04-18 14:37:00,
2013-04-18 10:42:00,68.9,68.0,30.08,WSW,244,0.9,11.6,97,0.00,,,0.00,Meteorologica,2013-04-18 14:42:00,
2013-04-18 10:47:00,69.4,67.9,30.08,SSW,207,0.9,4.8,95,0.00,,,0.00,Meteorologica,2013-04-18 14:47:00,
2013-04-18 10:52:00,69.6,67.1,30.08,SW,227,1.3,8.8,91,0.00,,,0.00,Meteorologica,2013-04-18 14:52:00,
2013-04-18 10:57:00,69.9,66.9,30.08,South,170,2.6,7.2,90,0.00,,,0.00,Meteorologica,2013-04-18 14:57:00,
2013-04-18 11:02:00,70.1,66.8,30.08,SE,124,2.1,11.3,89,0.00,,,0.00,Meteorologica,2013-04-18 15:02:00,
2013-04-18 11:07:00,70.5,65.1,30.07,South,170,4.6,12.5,82,0.00,,,0.00,Meteorologica,2013-04-18 15:07:00,
2013-04-18 11:12:00,70.9,64.4,30.08,SSW,194,6.8,11.5,79,0.00,,,0.00,Meteorologica,2013-04-18 15:12:00,
2013-04-18 11:17:00,71.1,63.6,30.08,NE,40,0.8,10.8,77,0.00,,,0.00,Meteorologica,2013-04-18 15:17:00,
2013-04-18 11:22:00,71.4,63.0,30.07,SW,222,3.7,10.8,74,0.00,,,0.00,Meteorologica,2013-04-18 15:22:00,
2013-04-18 11:27:00,71.5,62.7,30.07,SSW,213,8.5,13.1,73,0.00,,,0.00,Meteorologica,2013-04-18 15:27:00,
2013-04-18 11:32:00,71.6,61.7,30.07,South,191,7.2,15.3,70,0.00,,,0.00,Meteorologica,2013-04-18 15:32:00,
2013-04-18 11:37:00,71.7,62.1,30.07,SSE,167,4.8,14.6,71,0.00,,,0.00,Meteorologica,2013-04-18 15:37:00,
2013-04-18 11:42:00,71.8,61.1,30.06,SSW,204,8.3,17.9,68,0.00,,,0.00,Meteorologica,2013-04-18 15:42:00,
2013-04-18 11:47:00,71.8,61.0,30.06,South,169,3.4,14.9,68,0.00,,,0.00,Meteorologica,2013-04-18 15:47:00,
2013-04-18 11:52:00,71.8,60.1,30.06,SSW,205,4.6,12.8,66,0.00,,,0.00,Meteorologica,2013-04-18 15:52:00,
2013-04-18 11:57:00,72.2,62.0,30.06,SSW,212,4.3,13.3,69,0.00,,,0.00,Meteorologica,2013-04-18 15:57:00,
2013-04-18 12:02:00,73.0,62.0,30.06,SSW,196,3.3,10.7,68,0.00,,,0.00,Meteorologica,2013-04-18 16:02:00,
2013-04-18 12:07:00,74.1,62.0,30.06,SSW,213,6.0,9.0,65,0.00,,,0.00,Meteorologica,2013-04-18 16:07:00,
2013-04-18 12:12:00,74.9,60.6,30.05,West,265,6.6,20.9,60,0.00,,,0.00,Meteorologica,2013-04-18 16:12:00,
2013-04-18 12:17:00,75.8,60.7,30.05,SSE,160,4.5,13.9,59,0.00,,,0.00,Meteorologica,2013-04-18 16:17:00,
2013-04-18 12:22:00,76.0,60.6,30.05,SSE,165,6.6,15.9,58,0.00,,,0.00,Meteorologica,2013-04-18 16:22:00,
2013-04-18 12:27:00,76.2,60.2,30.05,SW,232,7.5,14.5,57,0.00,,,0.00,Meteorologica,2013-04-18 16:27:00,
2013-04-18 12:33:00,76.2,59.1,30.04,SSW,197,8.6,11.8,55,0.00,,,0.00,Meteorologica,2013-04-18 16:33:00,
2013-04-18 12:38:00,76.3,58.7,30.04,SSE,166,6.4,16.7,54,0.00,,,0.00,Meteorologica,2013-04-18 16:38:00,
2013-04-18 12:43:00,76.7,59.3,30.04,SW,234,5.6,15.3,54,0.00,,,0.00,Meteorologica,2013-04-18 16:43:00,
2013-04-18 12:48:00,77.2,58.5,30.04,SE,140,5.9,13.3,52,0.00,,,0.00,Meteorologica,2013-04-18 16:48:00,
2013-04-18 12:53:00,77.8,59.6,30.04,WNW,287,2.7,14.8,53,0.00,,,0.00,Meteorologica,2013-04-18 16:53:00,
2013-04-18 12:58:00,77.5,58.5,30.03,SSW,196,8.4,16.1,51,0.00,,,0.00,Meteorologica,2013-04-18 16:58:00,
2013-04-18 13:03:00,77.5,60.0,30.03,SSE,157,1.8,13.5,54,0.00,,,0.00,Meteorologica,2013-04-18 17:03:00,
2013-04-18 13:08:00,78.0,60.7,30.03,South,169,3.4,14.1,55,0.00,,,0.00,Meteorologica,2013-04-18 17:08:00,
2013-04-18 13:13:00,78.3,59.4,30.02,SSW,194,6.3,9.7,51,0.00,,,0.00,Meteorologica,2013-04-18 17:13:00,
2013-04-18 13:18:00,78.9,58.9,30.02,SSW,203,3.1,15.3,50,0.00,,,0.00,Meteorologica,2013-04-18 17:18:00,
2013-04-18 13:23:00,79.3,59.1,30.02,SW,214,4.4,16.2,49,0.00,,,0.00,Meteorologica,2013-04-18 17:23:00,
2013-04-18 13:28:00,79.8,59.0,30.02,SSW,200,5.0,15.2,49,0.00,,,0.00,Meteorologica,2013-04-18 17:28:00,
2013-04-18 13:33:00,79.8,59.0,30.02,SSW,204,7.7,16.4,48,0.00,,,0.00,Meteorologica,2013-04-18 17:33:00,
2013-04-18 13:38:00,79.4,58.6,30.01,SSE,153,6.0,18.6,48,0.00,,,0.00,Meteorologica,2013-04-18 17:38:00,
2013-04-18 13:43:00,79.3,60.1,30.01,NNE,12,1.0,9.8,51,0.00,,,0.00,Meteorologica,2013-04-18 17:43:00,
2013-04-18 13:48:00,79.4,59.2,30.01,South,180,6.2,9.8,49,0.00,,,0.00,Meteorologica,2013-04-18 17:48:00,
2013-04-18 13:53:00,79.9,58.6,30.01,SW,216,4.7,10.2,48,0.00,,,0.00,Meteorologica,2013-04-18 17:53:00,
2013-04-18 13:58:00,80.2,59.6,30.00,SSW,194,5.8,9.7,49,0.00,,,0.00,Meteorologica,2013-04-18 17:58:00,
2013-04-18 14:03:00,80.2,59.4,30.00,ESE,119,3.2,12.8,49,0.00,,,0.00,Meteorologica,2013-04-18 18:03:00,
2013-04-18 14:08:00,79.9,57.4,30.00,SSW,206,7.1,10.8,46,0.00,,,0.00,Meteorologica,2013-04-18 18:08:00,
2013-04-18 14:13:00,79.4,57.8,30.00,South,179,6.0,19.0,48,0.00,,,0.00,Meteorologica,2013-04-18 18:13:00,
2013-04-18 14:18:00,78.8,57.7,30.00,SSW,205,7.5,13.6,48,0.00,,,0.00,Meteorologica,2013-04-18 18:18:00,
2013-04-18 14:23:00,78.7,56.8,29.99,East,79,4.3,20.3,47,0.00,,,0.00,Meteorologica,2013-04-18 18:23:00,
2013-04-18 14:28:00,78.8,56.3,29.99,South,177,6.4,14.7,46,0.00,,,0.00,Meteorologica,2013-04-18 18:28:00,
2013-04-18 14:33:00,78.9,56.8,29.98,SSW,199,5.8,15.6,46,0.00,,,0.00,Meteorologica,2013-04-18 18:33:00,
2013-04-18 14:38:00,78.9,56.3,29.98,South,177,4.5,13.3,45,0.00,,,0.00,Meteorologica,2013-04-18 18:38:00,
2013-04-18 14:43:00,78.8,56.2,29.98,South,178,4.6,19.4,45,0.00,,,0.00,Meteorologica,2013-04-18 18:43:00,
2013-04-18 14:48:00,78.5,56.2,29.98,South,187,3.0,16.2,46,0.00,,,0.00,Meteorologica,2013-04-18 18:48:00,
2013-04-18 14:53:00,78.7,56.6,29.98,SSW,206,9.8,16.4,46,0.00,,,0.00,Meteorologica,2013-04-18 18:53:00,
2013-04-18 14:58:00,79.2,55.8,29.98,SE,132,6.5,17.2,44,0.00,,,0.00,Meteorologica,2013-04-18 18:58:00,
2013-04-18 15:03:00,79.8,55.7,29.98,SSW,205,10.6,17.8,43,0.00,,,0.00,Meteorologica,2013-04-18 19:03:00,
2013-04-18 15:08:00,80.2,54.6,29.98,SSE,160,10.6,19.9,41,0.00,,,0.00,Meteorologica,2013-04-18 19:08:00,
2013-04-18 15:13:00,80.4,54.9,29.98,SSW,194,5.2,20.1,41,0.00,,,0.00,Meteorologica,2013-04-18 19:13:00,
2013-04-18 15:19:00,80.4,55.3,29.98,SSW,206,4.4,19.7,42,0.00,,,0.00,Meteorologica,2013-04-18 19:19:00,
2013-04-18 15:24:00,80.1,55.1,29.97,SW,222,6.3,14.5,42,0.00,,,0.00,Meteorologica,2013-04-18 19:24:00,
2013-04-18 15:29:00,80.1,56.0,29.97,SE,129,4.3,14.0,43,0.00,,,0.00,Meteorologica,2013-04-18 19:29:00,
2013-04-18 15:34:00,80.0,55.2,29.97,East,91,7.3,14.4,42,0.00,,,0.00,Meteorologica,2013-04-18 19:34:00,
2013-04-18 15:39:00,79.8,55.7,29.97,SW,215,3.8,19.4,43,0.00,,,0.00,Meteorologica,2013-04-18 19:39:00,
2013-04-18 15:44:00,79.4,54.5,29.97,ESE,119,2.4,16.6,42,0.00,,,0.00,Meteorologica,2013-04-18 19:44:00,
2013-04-18 15:49:00,79.7,55.6,29.97,SW,221,7.9,7.9,43,0.00,,,0.00,Meteorologica,2013-04-18 19:49:00,
2013-04-18 15:54:00,79.9,55.5,29.97,South,180,5.2,16.6,43,0.00,,,0.00,Meteorologica,2013-04-18 19:54:00,
2013-04-18 15:59:00,79.7,55.9,29.96,SSW,196,5.4,15.7,43,0.00,,,0.00,Meteorologica,2013-04-18 19:59:00,
2013-04-18 16:04:00,79.7,56.3,29.96,SSE,159,3.1,14.3,44,0.00,,,0.00,Meteorologica,2013-04-18 20:04:00,
2013-04-18 16:09:00,79.8,56.2,29.96,SSW,194,4.3,13.3,44,0.00,,,0.00,Meteorologica,2013-04-18 20:09:00,
2013-04-18 16:14:00,80.2,54.9,29.96,SSW,211,8.8,15.3,41,0.00,,,0.00,Meteorologica,2013-04-18 20:14:00,
2013-04-18 16:19:00,80.3,55.0,29.95,SSE,150,6.0,15.6,41,0.00,,,0.00,Meteorologica,2013-04-18 20:19:00,
2013-04-18 16:24:00,80.5,54.7,29.95,West,271,3.8,15.7,41,0.00,,,0.00,Meteorologica,2013-04-18 20:24:00,
2013-04-18 16:29:00,80.7,55.2,29.94,SE,130,6.3,16.6,41,0.00,,,0.00,Meteorologica,2013-04-18 20:29:00,
2013-04-18 16:34:00,80.8,54.7,29.94,ESE,102,2.2,14.5,40,0.00,,,0.00,Meteorologica,2013-04-18 20:34:00,
2013-04-18 16:39:00,80.9,55.2,29.94,WNW,287,4.2,9.5,41,0.00,,,0.00,Meteorologica,2013-04-18 20:39:00,
2013-04-18 16:44:00,80.9,55.0,29.93,WSW,239,4.9,12.1,41,0.00,,,0.00,Meteorologica,2013-04-18 20:44:00,
2013-04-18 16:49:00,81.0,55.0,29.93,South,185,4.6,11.7,41,0.00,,,0.00,Meteorologica,2013-04-18 20:49:00,
2013-04-18 16:54:00,81.3,54.3,29.93,SSW,194,6.8,12.8,39,0.00,,,0.00,Meteorologica,2013-04-18 20:54:00,
2013-04-18 16:59:00,81.3,54.9,29.92,SW,214,4.5,18.7,40,0.00,,,0.00,Meteorologica,2013-04-18 20:59:00,
2013-04-18 17:04:00,81.3,55.3,29.92,SSW,208,5.6,14.2,41,0.00,,,0.00,Meteorologica,2013-04-18 21:04:00,
2013-04-18 17:09:00,81.4,55.4,29.93,SSW,208,4.1,9.1,41,0.00,,,0.00,Meteorologica,2013-04-18 21:09:00,
2013-04-18 17:14:00,81.4,54.3,29.92,SSW,194,8.7,8.8,39,0.00,,,0.00,Meteorologica,2013-04-18 21:14:00,
2013-04-18 17:19:00,81.2,53.8,29.92,ESE,118,5.3,16.4,38,0.00,,,0.00,Meteorologica,2013-04-18 21:19:00,
2013-04-18 17:24:00,80.9,53.1,29.92,SE,131,5.4,14.5,38,0.00,,,0.00,Meteorologica,2013-04-18 21:24:00,
2013-04-18 17:29:00,80.7,54.2,29.92,WSW,253,5.8,13.0,39,0.00,,,0.00,Meteorologica,2013-04-18 21:29:00,
2013-04-18 17:34:00,80.5,54.8,29.91,SW,215,2.9,16.2,41,0.00,,,0.00,Meteorologica,2013-04-18 21:34:00,
2013-04-18 17:39:00,80.4,54.5,29.92,WSW,255,4.2,11.8,41,0.00,,,0.00,Meteorologica,2013-04-18 21:39:00,
2013-04-18 17:44:00,80.1,53.8,29.92,SE,127,6.1,17.1,40,0.00,,,0.00,Meteorologica,2013-04-18 21:44:00,
2013-04-18 17:49:00,79.9,54.6,29.92,South,191,4.0,19.2,41,0.00,,,0.00,Meteorologica,2013-04-18 21:49:00,
2013-04-18 17:54:00,79.8,54.6,29.92,South,190,3.7,14.7,42,0.00,,,0.00,Meteorologica,2013-04-18 21:54:00,
2013-04-18 17:59:00,79.5,54.8,29.92,SSW,199,4.7,14.9,42,0.00,,,0.00,Meteorologica,2013-04-18 21:59:00,
2013-04-18 18:04:00,79.4,54.7,29.92,SSW,203,6.5,11.4,42,0.00,,,0.00,Meteorologica,2013-04-18 22:04:00,
2013-04-18 18:09:00,79.4,55.4,29.92,ESE,111,3.7,14.4,43,0.00,,,0.00,Meteorologica,2013-04-18 22:09:00,
2013-04-18 18:14:00,79.1,54.8,29.92,SSW,212,3.3,11.7,43,0.00,,,0.00,Meteorologica,2013-04-18 22:14:00,
2013-04-18 18:19:00,79.0,55.4,29.91,SSE,163,3.0,12.3,44,0.00,,,0.00,Meteorologica,2013-04-18 22:19:00,
2013-04-18 18:24:00,78.7,56.0,29.91,SSE,152,0.9,11.3,45,0.00,,,0.00,Meteorologica,2013-04-18 22:24:00,
2013-04-18 18:29:00,78.8,56.1,29.91,South,172,3.8,5.9,45,0.00,,,0.00,Meteorologica,2013-04-18 22:29:00,
2013-04-18 18:34:00,78.9,56.3,29.91,ESE,107,4.5,10.4,45,0.00,,,0.00,Meteorologica,2013-04-18 22:34:00,
2013-04-18 18:39:00,78.8,56.2,29.91,SSE,151,1.0,10.4,45,0.00,,,0.00,Meteorologica,2013-04-18 22:39:00,
2013-04-18 18:44:00,78.7,56.2,29.91,SSE,154,2.8,9.6,45,0.00,,,0.00,Meteorologica,2013-04-18 22:44:00,
2013-04-18 18:49:00,78.4,55.9,29.90,ESE,117,9.6,9.6,46,0.00,,,0.00,Meteorologica,2013-04-18 22:49:00,
2013-04-18 18:54:00,78.1,55.8,29.90,SW,217,5.0,16.1,46,0.00,,,0.00,Meteorologica,2013-04-18 22:54:00,
2013-04-18 18:59:00,78.0,55.9,29.90,SE,136,4.9,10.8,46,0.00,,,0.00,Meteorologica,2013-04-18 22:59:00,
2013-04-18 19:04:00,77.7,55.9,29.89,SW,226,1.1,9.5,46,0.00,,,0.00,Meteorologica,2013-04-18 23:04:00,
2013-04-18 19:09:00,77.7,56.1,29.89,South,188,1.9,10.4,47,0.00,,,0.00,Meteorologica,2013-04-18 23:09:00,
2013-04-18 19:14:00,77.4,55.9,29.89,East,90,1.4,11.4,47,0.00,,,0.00,Meteorologica,2013-04-18 23:14:00,
2013-04-18 19:19:00,77.3,55.5,29.89,South,182,3.7,9.6,47,0.00,,,0.00,Meteorologica,2013-04-18 23:19:00,
2013-04-18 19:24:00,77.2,56.0,29.89,ESE,105,3.2,10.7,48,0.00,,,0.00,Meteorologica,2013-04-18 23:24:00,
2013-04-18 19:29:00,77.0,55.4,29.89,SSW,207,6.5,12.7,47,0.00,,,0.00,Meteorologica,2013-04-18 23:29:00,
2013-04-18 19:34:00,77.0,55.4,29.89,SW,230,4.2,12.7,47,0.00,,,0.00,Meteorologica,2013-04-18 23:34:00,
2013-04-18 19:39:00,77.0,55.6,29.89,SSW,192,4.0,8.7,47,0.00,,,0.00,Meteorologica,2013-04-18 23:39:00,
2013-04-18 19:44:00,76.7,55.4,29.88,SSW,208,1.4,7.4,47,0.00,,,0.00,Meteorologica,2013-04-18 23:44:00,
2013-04-18 19:49:00,76.7,55.4,29.88,SSW,197,3.4,10.4,47,0.00,,,0.00,Meteorologica,2013-04-18 23:49:00,
2013-04-18 19:54:00,76.3,55.4,29.89,South,189,2.0,10.9,48,0.00,,,0.00,Meteorologica,2013-04-18 23:54:00,
2013-04-18 19:59:00,76.2,55.4,29.89,South,176,2.6,7.1,48,0.00,,,0.00,Meteorologica,2013-04-18 23:59:00,
2013-04-18 20:04:00,76.1,55.8,29.89,South,188,1.8,6.8,49,0.00,,,0.00,Meteorologica,2013-04-19 00:04:00,
2013-04-18 20:09:00,75.8,55.6,29.89,South,183,3.3,7.6,49,0.00,,,0.00,Meteorologica,2013-04-19 00:09:00,
2013-04-18 20:14:00,75.7,55.9,29.90,SSW,212,4.8,9.2,50,0.00,,,0.00,Meteorologica,2013-04-19 00:14:00,
2013-04-18 20:19:00,75.6,56.1,29.89,ESE,119,5.1,9.4,50,0.00,,,0.00,Meteorologica,2013-04-19 00:19:00,
2013-04-18 20:24:00,75.5,56.1,29.89,South,182,4.8,9.3,50,0.00,,,0.00,Meteorologica,2013-04-19 00:24:00,
2013-04-18 20:29:00,75.2,56.0,29.89,SSW,211,3.1,9.2,51,0.00,,,0.00,Meteorologica,2013-04-19 00:29:00,
2013-04-18 20:34:00,75.1,56.1,29.88,NE,53,2.4,7.8,51,0.00,,,0.00,Meteorologica,2013-04-19 00:34:00,
2013-04-18 20:39:00,75.0,56.1,29.88,SW,227,0.3,7.9,51,0.00,,,0.00,Meteorologica,2013-04-19 00:39:00,
2013-04-18 20:44:00,75.0,56.3,29.89,SW,216,2.3,10.3,52,0.00,,,0.00,Meteorologica,2013-04-19 00:44:00,
2013-04-18 20:49:00,75.0,56.5,29.88,SSW,196,2.9,8.9,52,0.00,,,0.00,Meteorologica,2013-04-19 00:49:00,
2013-04-18 20:54:00,74.7,56.5,29.89,SE,132,2.4,7.9,52,0.00,,,0.00,Meteorologica,2013-04-19 00:54:00,
2013-04-18 20:59:00,74.5,56.3,29.89,SSW,207,3.0,10.1,52,0.00,,,0.00,Meteorologica,2013-04-19 00:59:00,
2013-04-18 21:04:00,74.5,56.4,29.90,East,97,2.5,8.6,53,0.00,,,0.00,Meteorologica,2013-04-19 01:04:00,
2013-04-18 21:09:00,74.4,56.4,29.90,South,189,2.6,10.0,53,0.00,,,0.00,Meteorologica,2013-04-19 01:09:00,
2013-04-18 21:14:00,74.2,56.5,29.90,SSW,204,3.9,6.0,53,0.00,,,0.00,Meteorologica,2013-04-19 01:14:00,
2013-04-18 21:19:00,74.1,56.3,29.90,South,184,3.4,7.9,53,0.00,,,0.00,Meteorologica,2013-04-19 01:19:00,
2013-04-18 21:24:00,74.1,56.4,29.90,SSW,213,3.6,8.7,53,0.00,,,0.00,Meteorologica,2013-04-19 01:24:00,
2013-04-18 21:29:00,74.0,56.4,29.90,SSW,194,6.2,9.8,53,0.00,,,0.00,Meteorologica,2013-04-19 01:29:00,
2013-04-18 21:34:00,74.0,56.4,29.90,SSW,194,3.2,10.5,53,0.00,,,0.00,Meteorologica,2013-04-19 01:34:00,
2013-04-18 21:39:00,74.0,56.5,29.90,SSE,158,4.0,10.7,54,0.00,,,0.00,Meteorologica,2013-04-19 01:39:00,
2013-04-18 21:44:00,73.9,56.4,29.90,SSW,208,2.8,17.7,54,0.00,,,0.00,Meteorologica,2013-04-19 01:44:00,
2013-04-18 21:49:00,73.9,56.5,29.89,SSW,208,6.5,6.8,54,0.00,,,0.00,Meteorologica,2013-04-19 01:49:00,
2013-04-18 21:54:00,73.9,56.6,29.88,SSW,195,4.5,11.8,54,0.00,,,0.00,Meteorologica,2013-04-19 01:54:00,
2013-04-18 21:59:00,73.8,56.5,29.89,South,175,5.5,8.6,54,0.00,,,0.00,Meteorologica,2013-04-19 01:59:00,
2013-04-18 22:04:00,73.7,56.5,29.88,SSE,157,3.3,9.4,54,0.00,,,0.00,Meteorologica,2013-04-19 02:04:00,
2013-04-18 22:09:00,73.7,56.7,29.88,WSW,251,3.0,9.9,55,0.00,,,0.00,Meteorologica,2013-04-19 02:09:00,
2013-04-18 22:14:00,73.6,56.5,29.87,SE,124,5.1,6.2,54,0.00,,,0.00,Meteorologica,2013-04-19 02:14:00,
2013-04-18 22:19:00,73.7,56.7,29.87,SSW,201,5.3,9.3,55,0.00,,,0.00,Meteorologica,2013-04-19 02:19:00,
2013-04-18 22:24:00,73.7,56.8,29.86,South,170,5.9,8.8,55,0.00,,,0.00,Meteorologica,2013-04-19 02:24:00,
2013-04-18 22:29:00,73.5,56.5,29.86,SSE,155,4.3,11.6,55,0.00,,,0.00,Meteorologica,2013-04-19 02:29:00,
2013-04-18 22:34:00,73.5,56.6,29.86,South,188,4.4,10.5,55,0.00,,,0.00,Meteorologica,2013-04-19 02:34:00,
2013-04-18 22:39:00,73.6,56.5,29.85,SSW,207,5.5,9.3,54,0.00,,,0.00,Meteorologica,2013-04-19 02:39:00,
2013-04-18 22:44:00,73.5,56.7,29.85,SSE,149,2.9,10.5,55,0.00,,,0.00,Meteorologica,2013-04-19 02:44:00,
2013-04-18 22:49:00,73.6,56.5,29.86,SSE,163,3.5,8.9,54,0.00,,,0.00,Meteorologica,2013-04-19 02:49:00,
2013-04-18 22:54:00,73.6,56.8,29.85,South,183,4.0,16.1,55,0.00,,,0.00,Meteorologica,2013-04-19 02:54:00,
2013-04-18 22:59:00,73.5,56.7,29.85,SSE,166,5.0,8.5,55,0.00,,,0.00,Meteorologica,2013-04-19 02:59:00,
2013-04-18 23:04:00,73.4,56.6,29.84,SSE,160,7.8,12.7,55,0.00,,,0.00,Meteorologica,2013-04-19 03:04:00,
2013-04-18 23:09:00,73.5,56.8,29.84,East,93,3.2,15.9,55,0.00,,,0.00,Meteorologica,2013-04-19 03:09:00,
2013-04-18 23:14:00,73.5,56.7,29.84,SSW,206,6.7,11.2,55,0.00,,,0.00,Meteorologica,2013-04-19 03:14:00,
2013-04-18 23:19:00,73.4,56.8,29.83,SSE,157,6.8,12.3,55,0.00,,,0.00,Meteorologica,2013-04-19 03:19:00,
2013-04-18 23:24:00,73.4,56.7,29.84,SSW,213,3.3,16.6,55,0.00,,,0.00,Meteorologica,2013-04-19 03:24:00,
2013-04-18 23:29:00,73.3,56.9,29.83,SW,231,4.8,12.2,56,0.00,,,0.00,Meteorologica,2013-04-19 03:29:00,
2013-04-18 23:34:00,73.2,56.8,29.83,SE,136,4.3,11.4,56,0.00,,,0.00,Meteorologica,2013-04-19 03:34:00,
2013-04-18 23:39:00,73.2,56.8,29.83,SW,236,2.8,22.4,56,0.00,,,0.00,Meteorologica,2013-04-19 03:39:00,
2013-04-18 23:44:00,73.3,57.0,29.83,SSE,149,5.6,11.7,56,0.00,,,0.00,Meteorologica,2013-04-19 03:44:00,
2013-04-18 23:49:00,73.1,56.8,29.83,SSE,148,2.9,13.1,56,0.00,,,0.00,Meteorologica,2013-04-19 03:49:00,
2013-04-18 23:54:00,73.0,56.9,29.83,SSW,212,3.6,14.2,56,0.00,,,0.00,Meteorologica,2013-04-19 03:54:00,
2013-04-18 23:59:00,72.9,56.9,29.83,SW,215,4.6,13.3,56,0.00,,,0.00,Meteorologica,2013-04-19 03:59:00,